User: anonymous   Login
Location: Unspecified
(0.0000°N, 0.0000°E)
Time: 13:54:41
(UTC+02:00)
Language:

YAOGAN 1 - Orbit

View from above orbital plane
View from above orbital plane
View from above satellite
View from above satellite

Ground track
Ground track

The orbit data is extracted from the following two-line orbital elements,

1 29092U 06015A   16206.63309738  .00000086  00000-0  17324-4 0  9993
2 29092  98.0048 211.6334 0001501  91.1798 268.9587 14.82683597553826
Epoch (UTC): 24 July 2016 15:11:39
Eccentricity: 0.0001501
inclination: 98.0048°
perigee height: 620 km
apogee height: 622 km
right ascension of ascending node: 211.6334°
argument of perigee: 91.1798°
revolutions per day: 14.82683597
mean anomaly at epoch: 268.9587°
orbit number at epoch: 55382

The dashed part of the orbit path shows where the satellite is in the earth's shadow,  

DLR